N7NKE Weather Reports


time (UTC)temp
C
wind
direction
speed
KPH
gust
KPH
rain 1hr
cm
rain 24hr
cm
rain mn
cm
humidity
%
barometer
mb
20260509195004 21 330 3.2 8.0 0.00 0.00 0.00 51 1018.4
20260509194505 21 37 3.2 8.0 0.00 0.00 0.00 49 1018.5
20260509194004 20 343 3.2 11.3 0.00 0.00 0.00 51 1018.7
20260509193504 20 13 6.4 11.3 0.00 0.00 0.00 49 1018.7
20260509192505 20 330 3.2 8.0 0.00 0.00 0.00 56 1018.9
20260509192004 20 0 1.6 9.7 0.00 0.00 0.00 57 1019.0
20260509190504 19 79 3.2 8.0 0.00 0.00 0.00 59 1019.2
20260509190005 19 352 4.8 11.3 0.00 0.00 0.00 61 1019.3
20260509185504 19 275 1.6 9.7 0.00 0.00 0.00 59 1019.3
20260509185004 19 316 3.2 9.7 0.00 0.00 0.00 58 1019.5
20260509184504 19 8 4.8 8.0 0.00 0.00 0.00 58 1019.5
20260509184004 19 276 1.6 8.0 0.00 0.00 0.00 59 1019.5
20260509183005 18 23 1.6 3.2 0.00 0.00 0.00 60 1019.6
20260509182004 18 1 3.2 4.8 0.00 0.00 0.00 62 1019.6
20260509181504 18 68 3.2 8.0 0.00 0.00 0.00 63 1019.7
20260509181004 18 20 1.6 3.2 0.00 0.00 0.00 63 1019.7
20260509180504 18 349 4.8 9.7 0.00 0.00 0.00 64 1019.6
20260509180004 18 320 3.2 4.8 0.00 0.00 0.00 65 1019.7
20260509175504 17 15 3.2 4.8 0.00 0.00 0.00 65 1019.7
20260509174504 17 322 1.6 3.2 0.00 0.00 0.00 69 1019.8
20260509173504 17 24 3.2 4.8 0.00 0.00 0.00 68 1019.9
20260509173005 16 15 3.2 4.8 0.00 0.00 0.00 69 1019.9
20260509172504 16 21 1.6 3.2 0.00 0.00 0.00 71 1020.0
20260509172004 16 345 1.6 8.0 0.00 0.00 0.00 68 1020.0
20260509171504 16 286 1.6 3.2 0.00 0.00 0.00 69 1020.1
20260509171004 16 23 3.2 3.2 0.00 0.00 0.00 71 1020.1
20260509170504 16 11 1.6 4.8 0.00 0.00 0.00 71 1020.1
20260509170004 16 37 3.2 4.8 0.00 0.00 0.00 71 1020.1
20260509165504 16 338 1.6 3.2 0.00 0.00 0.00 71 1020.3
20260509165004 16 344 3.2 4.8 0.00 0.00 0.00 72 1020.3
20260509164505 15 65 3.2 8.0 0.00 0.00 0.00 74 1020.3
20260509164004 15 29 1.6 3.2 0.00 0.00 0.00 74 1020.5
20260509162504 15 61 3.2 4.8 0.00 0.00 0.00 77 1020.5
20260509162004 15 340 3.2 3.2 0.00 0.00 0.00 78 1020.7
20260509161504 15 350 1.6 3.2 0.00 0.00 0.00 79 1020.7
20260509161004 14 354 1.6 4.8 0.00 0.00 0.00 80 1020.8
20260509160504 14 355 1.6 4.8 0.00 0.00 0.00 81 1020.8
20260509160005 13 59 1.6 4.8 0.00 0.00 0.00 83 1020.9
20260509155504 13 6 1.6 3.2 0.00 0.00 0.00 83 1021.0
20260509155004 13 2 1.6 3.2 0.00 0.00 0.00 83 1021.1
20260509154505 13 121 1.6 3.2 0.00 0.00 0.00 85 1021.1
20260509154004 12 101 1.6 3.2 0.00 0.00 0.00 86 1021.1
20260509153504 12 9 1.6 4.8 0.00 0.00 0.00 87 1021.2
20260509153004 12 91 3.2 4.8 0.00 0.00 0.00 88 1021.0
20260509152503 11 0 0.0 3.2 0.00 0.00 0.00 88 1021.1
20260509151504 11 40 3.2 3.2 0.00 0.00 0.00 89 1021.1
20260509151005 11 27 1.6 3.2 0.00 0.00 0.00 89 1021.3
20260509150505 11 38 1.6 3.2 0.00 0.00 0.00 90 1021.3
20260509150005 10 86 1.6 3.2 0.00 0.00 0.00 90 1021.3
20260509145506 10 0 0.0 3.2 0.00 0.00 0.00 90 1021.3
20260509145006 10 105 0.0 3.2 0.00 0.00 0.00 91 1021.4
20260509144505 10 105 1.6 3.2 0.00 0.00 0.00 91 1021.4
20260509143005 9 106 0.0 0.0 0.00 0.00 0.00 91 1021.4
20260509142005 8 105 0.0 3.2 0.00 0.00 0.00 91 1021.2
20260509141506 8 105 0.0 3.2 0.00 0.00 0.00 91 1021.0
20260509140505 8 145 0.0 0.0 0.00 0.00 0.00 91 1021.1
20260509140006 8 145 0.0 0.0 0.00 0.00 0.00 91 1021.1
20260509135506 8 145 0.0 0.0 0.00 0.00 0.00 91 1021.1
20260509134005 8 0 1.6 3.2 0.00 0.00 0.00 91 1021.1
20260509133506 7 0 1.6 3.2 0.00 0.00 0.00 91 1021.0
20260509133006 7 0 1.6 1.6 0.00 0.00 0.00 91 1021.0
20260509132506 7 193 1.6 1.6 0.00 0.00 0.00 91 1020.9
20260509132005 7 144 0.0 1.6 0.00 0.00 0.00 91 1020.8
20260509131505 7 144 1.6 3.2 0.00 0.00 0.00 91 1020.8
20260509130006 7 215 0.0 3.2 0.00 0.00 0.00 91 1020.8
20260509125505 7 215 1.6 3.2 0.00 0.00 0.00 91 1020.8
20260509125006 7 218 1.6 1.6 0.00 0.00 0.00 90 1020.9
20260509124505 7 215 1.6 3.2 0.00 0.00 0.00 90 1020.9
20260509124005 7 215 1.6 1.6 0.00 0.00 0.00 90 1020.8
20260509123005 7 0 1.6 3.2 0.00 0.00 0.00 90 1020.8
20260509122505 8 1 0.0 3.2 0.00 0.00 0.00 90 1020.9
20260509122005 8 0 1.6 1.6 0.00 0.00 0.00 90 1021.1
20260509121005 8 0 1.6 3.2 0.00 0.00 0.00 90 1021.1
20260509120505 8 0 1.6 1.6 0.00 0.00 0.00 90 1021.2
20260509120006 8 0 1.6 3.2 0.00 0.00 0.00 90 1021.2
20260509115505 8 358 1.6 1.6 0.00 0.00 0.00 90 1021.1
20260509115005 8 0 1.6 1.6 0.00 0.00 0.00 90 1021.1
20260509114505 8 0 0.0 3.2 0.00 0.00 0.00 90 1021.1
20260509114005 8 358 1.6 3.2 0.00 0.00 0.00 90 1021.1
20260509113505 8 0 0.0 3.2 0.00 0.00 0.00 89 1021.3
20260509113006 8 0 0.0 0.0 0.00 0.00 0.00 89 1021.3
20260509112505 8 0 0.0 1.6 0.00 0.00 0.00 89 1021.2
20260509112005 8 0 0.0 0.0 0.00 0.00 0.00 90 1021.2
20260509111506 8 0 0.0 1.6 0.00 0.00 0.00 90 1021.2
20260509111005 8 356 0.0 3.2 0.00 0.00 0.00 89 1021.2
20260509110505 8 0 1.6 1.6 0.00 0.00 0.00 89 1021.2
20260509105506 9 357 1.6 1.6 0.00 0.00 0.00 89 1021.5
20260509105005 9 228 1.6 1.6 0.00 0.00 0.00 89 1021.5
20260509104505 9 223 1.6 3.2 0.00 0.00 0.00 89 1021.5
20260509104005 9 0 0.0 1.6 0.00 0.00 0.00 89 1021.7
20260509103505 9 0 0.0 0.0 0.00 0.00 0.00 89 1021.7
20260509103005 9 0 0.0 1.6 0.00 0.00 0.00 89 1021.7
20260509102505 9 228 0.0 3.2 0.00 0.00 0.00 89 1021.7
20260509102005 9 222 1.6 1.6 0.00 0.00 0.00 89 1021.7
20260509101505 9 0 1.6 3.2 0.00 0.00 0.00 89 1021.7
20260509101005 9 359 1.6 3.2 0.00 0.00 0.00 89 1021.6
20260509100505 9 0 1.6 1.6 0.00 0.00 0.00 88 1021.6
20260509100006 9 0 0.0 1.6 0.00 0.00 0.00 88 1021.8
20260509095505 9 0 0.0 3.2 0.00 0.00 0.00 88 1021.8
20260509095005 9 0 0.0 3.2 0.00 0.00 0.00 88 1021.8
20260509094506 9 0 1.6 3.2 0.00 0.00 0.00 88 1021.8
20260509094005 10 0 0.0 0.0 0.00 0.00 0.00 88 1021.8
20260509093505 10 0 0.0 3.2 0.00 0.00 0.00 88 1021.7
20260509093006 10 0 0.0 3.2 0.00 0.00 0.00 88 1021.8
20260509092506 10 0 0.0 1.6 0.00 0.00 0.00 88 1021.8
20260509092006 10 0 1.6 3.2 0.00 0.00 0.00 88 1021.8
20260509091506 10 223 0.0 3.2 0.00 0.00 0.00 87 1021.9
20260509091005 10 358 0.0 3.2 0.00 0.00 0.00 87 1022.0
20260509090506 10 221 1.6 4.8 0.00 0.00 0.00 87 1022.0
20260509090005 10 165 3.2 4.8 0.00 0.00 0.00 87 1022.1
20260509085505 10 263 1.6 3.2 0.00 0.00 0.00 87 1022.1
20260509085005 10 352 1.6 3.2 0.00 0.00 0.00 86 1022.1
20260509084506 10 359 0.0 1.6 0.00 0.00 0.00 86 1022.0
20260509084006 11 0 0.0 3.2 0.00 0.00 0.00 86 1022.1
20260509083505 11 0 0.0 3.2 0.00 0.00 0.00 86 1022.2
20260509083005 11 236 0.0 3.2 0.00 0.00 0.00 85 1022.3
20260509082505 11 0 0.0 3.2 0.00 0.00 0.00 85 1022.3
20260509081505 11 0 0.0 3.2 0.00 0.00 0.00 84 1022.4
20260509081005 11 227 0.0 1.6 0.00 0.00 0.00 84 1022.3
20260509080505 11 302 1.6 3.2 0.00 0.00 0.00 84 1022.4
20260509075505 12 181 0.0 3.2 0.00 0.00 0.00 84 1022.4
20260509075005 12 170 1.6 3.2 0.00 0.00 0.00 84 1022.4
20260509074506 11 191 1.6 3.2 0.00 0.00 0.00 84 1022.4
20260509074004 11 253 1.6 3.2 0.00 0.00 0.00 85 1022.4
20260509073505 11 259 1.6 3.2 0.00 0.00 0.00 85 1022.5
20260509073005 11 335 1.6 3.2 0.00 0.00 0.00 85 1022.5
20260509072005 11 2 0.0 3.2 0.00 0.00 0.00 84 1022.6
20260509071506 11 22 0.0 1.6 0.00 0.00 0.00 84 1022.6
20260509071005 12 21 1.6 3.2 0.00 0.00 0.00 84 1022.5
20260509070505 12 76 1.6 3.2 0.00 0.00 0.00 83 1022.6
20260509070006 12 32 1.6 3.2 0.00 0.00 0.00 82 1022.5
20260509064505 12 12 1.6 3.2 0.00 0.00 0.00 80 1022.5
20260509064005 12 0 0.0 3.2 0.00 0.00 0.00 79 1022.4
20260509063006 13 25 1.6 4.8 0.00 0.00 0.00 79 1022.5
20260509062505 13 320 0.0 3.2 0.00 0.00 0.00 78 1022.4
20260509062005 13 280 0.0 3.2 0.00 0.00 0.00 78 1022.4
20260509061006 13 317 1.6 3.2 0.00 0.00 0.00 77 1022.3
20260509060505 13 327 3.2 4.8 0.00 0.00 0.00 76 1022.2
20260509060006 13 319 1.6 8.0 0.00 0.00 0.00 76 1022.2
20260509055005 13 328 3.2 8.0 0.00 0.00 0.00 76 1022.1
20260509054004 13 324 3.2 9.7 0.00 0.00 0.00 76 1022.1
20260509053505 13 311 4.8 8.0 0.00 0.00 0.00 75 1022.1
20260509053006 13 317 4.8 9.7 0.00 0.00 0.00 75 1022.1
20260509052505 14 323 4.8 9.7 0.00 0.00 0.00 75 1022.2
20260509052005 14 320 4.8 8.0 0.00 0.00 0.00 75 1022.2
20260509051505 14 324 4.8 8.0 0.00 0.00 0.00 74 1022.2
20260509051005 14 331 4.8 4.8 0.00 0.00 0.00 74 1022.1
20260509050505 14 327 3.2 8.0 0.00 0.00 0.00 73 1022.2
20260509050006 14 341 4.8 8.0 0.00 0.00 0.00 73 1022.1
20260509045505 15 326 4.8 8.0 0.00 0.00 0.00 73 1022.1
20260509045005 15 332 4.8 11.3 0.00 0.00 0.00 72 1022.1
20260509044505 15 329 4.8 8.0 0.00 0.00 0.00 72 1022.0
20260509043505 15 334 3.2 4.8 0.00 0.00 0.00 71 1022.0
20260509042505 15 325 3.2 4.8 0.00 0.00 0.00 70 1021.8
20260509042005 15 333 4.8 9.7 0.00 0.00 0.00 70 1021.7
20260509041506 15 333 4.8 9.7 0.00 0.00 0.00 70 1021.6
20260509040505 15 331 3.2 8.0 0.00 0.00 0.00 70 1021.5
20260509040006 16 325 3.2 3.2 0.00 0.00 0.00 70 1021.4
20260509035504 16 325 3.2 4.8 0.00 0.00 0.00 70 1021.4
20260509035005 16 335 3.2 4.8 0.00 0.00 0.00 69 1021.4
20260509034505 16 331 3.2 3.2 0.00 0.00 0.00 70 1021.4
20260509034005 16 345 3.2 4.8 0.00 0.00 0.00 68 1021.3
20260509033505 16 6 1.6 3.2 0.00 0.00 0.00 68 1021.4
20260509033006 16 17 4.8 4.8 0.00 0.00 0.00 66 1021.3
20260509032505 17 30 3.2 4.8 0.00 0.00 0.00 67 1021.3
20260509032005 17 28 1.6 3.2 0.00 0.00 0.00 66 1021.3
20260509031504 17 17 3.2 4.8 0.00 0.00 0.00 64 1021.2
20260509030504 17 325 3.2 4.8 0.00 0.00 0.00 64 1021.1
20260509030005 17 323 1.6 4.8 0.00 0.00 0.00 64 1021.0
20260509025505 17 331 3.2 9.7 0.00 0.00 0.00 63 1021.0
20260509025005 17 333 4.8 9.7 0.00 0.00 0.00 63 1020.9
20260509024004 17 330 3.2 9.7 0.00 0.00 0.00 62 1020.9
20260509023005 17 323 4.8 4.8 0.00 0.00 0.00 61 1020.9
20260509022504 18 349 3.2 8.0 0.00 0.00 0.00 60 1020.9
20260509022005 18 328 6.4 9.7 0.00 0.00 0.00 58 1020.9
20260509021505 18 332 4.8 12.9 0.00 0.00 0.00 58 1021.0
20260509021005 18 339 4.8 9.7 0.00 0.00 0.00 58 1020.9
20260509020505 18 325 4.8 8.0 0.00 0.00 0.00 57 1020.9
20260509020005 18 353 3.2 8.0 0.00 0.00 0.00 58 1020.9
20260509015505 18 337 4.8 9.7 0.00 0.00 0.00 57 1020.9
20260509015005 18 336 4.8 11.3 0.00 0.00 0.00 58 1020.9
20260509014505 18 330 4.8 9.7 0.00 0.00 0.00 58 1020.9
20260509014005 18 340 8.0 9.7 0.00 0.00 0.00 58 1020.9
20260509013504 18 331 4.8 8.0 0.00 0.00 0.00 58 1020.9
20260509013005 18 338 4.8 9.7 0.00 0.00 0.00 58 1020.8
20260509012505 18 333 3.2 8.0 0.00 0.00 0.00 59 1020.9
20260509012005 18 330 4.8 8.0 0.00 0.00 0.00 58 1020.9
20260509011505 18 335 4.8 8.0 0.00 0.00 0.00 57 1020.9
20260509011004 18 324 3.2 8.0 0.00 0.00 0.00 58 1021.0
20260509010005 18 336 3.2 4.8 0.00 0.00 0.00 56 1021.1
20260509005505 18 333 4.8 9.7 0.00 0.00 0.00 55 1021.1
20260509005005 18 358 3.2 9.7 0.00 0.00 0.00 56 1021.0
20260509004504 19 325 3.2 4.8 0.00 0.00 0.00 56 1021.0
20260509004005 19 328 3.2 4.8 0.00 0.00 0.00 56 1021.0
20260509003505 19 324 3.2 4.8 0.00 0.00 0.00 54 1020.9
20260509003005 19 327 3.2 4.8 0.00 0.00 0.00 52 1021.0
20260509002505 20 338 4.8 9.7 0.00 0.00 0.00 51 1020.9
20260509002005 20 1 1.6 3.2 0.00 0.00 0.00 53 1020.9
20260509001505 20 355 3.2 3.2 0.00 0.00 0.00 52 1021.0
20260509001005 20 358 1.6 3.2 0.00 0.00 0.00 53 1021.0
20260509000504 20 274 3.2 4.8 0.00 0.00 0.00 52 1021.0
20260509000005 20 280 3.2 8.0 0.00 0.00 0.00 52 1021.1
20260508235505 20 321 3.2 4.8 0.00 0.00 0.00 53 1021.1
20260508234505 19 251 3.2 4.8 0.00 0.00 0.00 51 1021.1
20260508234005 19 270 1.6 3.2 0.00 0.00 0.00 52 1021.2
20260508233505 19 316 1.6 1.6 0.00 0.00 0.00 53 1021.2
20260508233005 19 85 1.6 3.2 0.00 0.00 0.00 51 1021.2
20260508232505 19 11 1.6 3.2 0.00 0.00 0.00 53 1021.2
20260508231505 19 0 3.2 8.0 0.00 0.00 0.00 53 1021.2
20260508231005 19 17 3.2 8.0 0.00 0.00 0.00 51 1021.2
20260508230505 20 70 3.2 11.3 0.00 0.00 0.00 52 1021.2
20260508230006 20 346 3.2 4.8 0.00 0.00 0.00 51 1021.1
20260508225504 20 6 1.6 4.8 0.00 0.00 0.00 53 1021.1
20260508225005 20 2 4.8 9.7 0.00 0.00 0.00 53 1021.1
20260508224505 19 331 3.2 8.0 0.00 0.00 0.00 52 1021.1
20260508224005 19 37 4.8 8.0 0.00 0.00 0.00 53 1021.1
20260508223005 19 28 4.8 8.0 0.00 0.00 0.00 52 1021.2
20260508222505 19 82 4.8 12.9 0.00 0.00 0.00 53 1021.2
20260508222005 19 57 4.8 8.0 0.00 0.00 0.00 52 1021.2
20260508221005 19 65 4.8 12.9 0.00 0.00 0.00 53 1021.3
20260508220505 19 1 3.2 12.9 0.00 0.00 0.00 54 1021.3
20260508220005 18 50 1.6 11.3 0.00 0.00 0.00 56 1021.3
20260508214504 18 71 8.0 14.5 0.00 0.00 0.00 53 1021.3
20260508214005 18 71 6.4 12.9 0.00 0.00 0.00 56 1021.3
20260508213505 18 104 6.4 12.9 0.00 0.00 0.00 54 1021.3
20260508213005 18 88 4.8 14.5 0.00 0.00 0.00 57 1021.4
20260508212505 18 2 3.2 9.7 0.00 0.00 0.00 54 1021.4
20260508212004 18 50 4.8 16.1 0.00 0.00 0.00 56 1021.4
20260508211505 18 278 1.6 3.2 0.00 0.00 0.00 54 1021.3
20260508211005 18 47 6.4 12.9 0.00 0.00 0.00 56 1021.3
20260508210504 17 150 4.8 9.7 0.00 0.00 0.00 55 1021.3
20260508210005 17 93 4.8 11.3 0.00 0.00 0.00 55 1021.4
20260508205505 17 338 3.2 8.0 0.00 0.00 0.00 57 1021.4
20260508205005 17 15 3.2 4.8 0.00 0.00 0.00 56 1021.4
20260508204505 17 113 4.8 9.7 0.00 0.00 0.00 56 1021.3
20260508204005 17 86 3.2 9.7 0.00 0.00 0.00 56 1021.4
20260508203006 17 113 4.8 12.9 0.00 0.00 0.00 59 1021.3
20260508202504 17 122 4.8 12.9 0.00 0.00 0.00 59 1021.4
20260508202004 17 311 3.2 8.0 0.00 0.00 0.00 56 1021.4
20260508201506 17 206 3.2 12.9 0.00 0.00 0.00 58 1021.4
20260508201005 16 195 3.2 11.3 0.00 0.00 0.00 58 1021.4
20260508200505 16 121 8.0 12.9 0.00 0.00 0.00 59 1021.4
20260508200005 16 93 3.2 8.0 0.00 0.00 0.00 61 1021.5
20260508195505 16 228 1.6 3.2 0.00 0.00 0.00 62 1021.5